Location: Cementara
(41.0167°N, 14.4667°E)
Time: 19:33:55
(UTC+00:00)

Daily predictions for brighter satellites

Satellite Brightness Start Highest point End
(mag) Time Altitude Azimuth Time Altitude Azimuth Time Altitude Azimuth
Meteor 1-14 Rocket 4.2 17:16:59 10° S 17:22:30 72° E 17:28:01 10° NNE
Cosmos 1500 3.1 17:20:55 10° S 17:24:36 74° E 17:28:20 10° NNE
Cosmos 2360 Rocket 2.5 17:19:03 10° SSW 17:24:41 74° WNW 17:30:22 10° NNE
Cosmos 2341 Rocket 4.2 17:22:23 10° SSE 17:28:25 51° E 17:34:26 10° NNE
Meteor 1-18 Rocket 4.5 17:25:01 10° N 17:30:59 84° W 17:36:50 10° S
Cosmos 2333 4.2 17:25:36 10° SSW 17:31:11 68° ESE 17:36:52 10° NNE
YAOGAN 1 2.7 17:27:05 10° SSE 17:31:16 52° ENE 17:35:29 10° N
Okean 1-7 3.5 17:27:49 10° N 17:31:55 39° ENE 17:35:57 10° SSE
Cosmos 2237 Rocket 3.7 17:29:41 10° SE 17:32:26 14° E 17:35:11 10° ENE
Aureole 2 Rocket 4.0 17:31:11 10° NW 17:33:22 27° WSW 17:35:30 10° SSW
PSLV R/B 4.0 17:29:47 10° NNE 17:33:48 54° E 17:37:45 10° S
Cosmos 1844 3.7 17:28:23 10° NNW 17:34:09 68° ENE 17:39:47 10° SSE
Okean 1 4.1 17:30:49 10° NNW 17:34:48 57° W 17:38:45 10° S
Cosmos 2278 Rocket 3.7 17:32:39 10° N 17:36:28 18° NE 17:40:15 10° E
Meteor 1-5 Rocket 4.1 17:33:26 10° S 17:38:44 65° E 17:44:15 10° NNE
Cosmos 2218 Rocket 4.5 17:33:24 10° SSE 17:39:16 40° E 17:45:08 10° NNE
SJ 16-02 3.0 17:37:05 10° NNE 17:39:49 16° ENE 17:42:16 11° E
SAR-Lupe-4 3.9 17:36:45 10° NNE 17:40:12 43° E 17:43:37 10° S
IRS-1C Rocket 4.2 17:36:00 10° SSE 17:41:16 89° WSW 17:46:35 10° NNW
Cosmos 1536 3.8 17:39:25 10° SE 17:42:41 25° E 17:45:57 10° NE
SL-4 R/B 2.1 17:41:13 10° NW 17:44:37 42° NNE 17:47:21 14° E
COSMO-SKYMED 1 4.0 17:41:01 10° N 17:45:08 42° WNW 17:49:12 10° SW
Okean 3 4.4 17:41:45 10° NNE 17:45:25 27° ENE 17:49:06 10° SE
SeaSat 1 3.1 17:43:17 10° NE 17:47:46 34° ESE 17:52:13 10° S
Cosmos 2242 Rocket 3.5 17:44:55 10° N 17:49:24 77° E 17:53:49 10° SSE
Cosmos 2333 Rocket 2.2 17:46:23 10° SSW 17:52:03 80° ESE 17:57:48 10° NNE
USA 234 4.1 17:46:45 10° ENE 17:52:14 28° SE 17:57:41 10° S
USA 238 DEB 4.1 17:46:38 10° S 17:52:29 37° ESE 17:58:35 10° NE
USA 238 4.1 17:46:46 10° S 17:52:36 37° ESE 17:58:40 10° NE
Abrixas rocket 2.9 17:53:25 10° NW 17:55:35 26° NNE 17:56:40 19° ENE
Helios 1A Rocket 2.9 17:54:02 10° SSE 17:58:00 57° ENE 18:01:57 10° N
Lacrosse 4 Rocket 1.8 17:55:12 10° SSW 17:59:34 73° WNW 18:04:04 10° NNE
GP-B 3.0 17:55:34 10° S 17:59:59 77° E 18:04:26 10° N
Meteor 2-4 Rocket 4.1 17:54:34 10° NNW 18:00:29 77° W 18:06:24 10° S
SAR-Lupe-1 4.0 17:57:01 10° NNE 18:00:38 86° ESE 18:04:12 10° SSW
DELTA 2 R/B (1) 3.7 17:56:16 10° WSW 18:01:46 64° SSE 18:05:50 18° E
ARGOS 3.1 17:56:38 10° SSE 18:02:03 82° ENE 18:07:30 10° N
Cosmos 1869 Rocket 3.4 18:02:18 10° S 18:06:38 73° E 18:11:03 10° NNE
CZ-4 R/B 2.4 18:03:54 10° S 18:07:38 46° W 18:11:27 10° NNW
Cosmos 2219 Rocket 2.2 18:02:58 10° SSW 18:08:34 86° WNW 18:14:12 10° NNE
CZ-4B R/B 4.5 18:09:33 10° NNW 18:11:31 16° WNW 18:13:29 10° WSW
Cosmos 1238 Rocket 3.0 18:10:51 10° SSE 18:14:55 44° E 18:18:21 10° NNE
FALCON 9 DEB 4.0 18:13:21 10° NW 18:16:10 29° NNE 18:16:47 27° NE
ERS-2 2.9 18:12:40 10° N 18:16:16 55° WNW 18:19:50 10° SSW
Cosmos 1980 4.2 18:11:36 10° S 18:16:41 36° ESE 18:21:47 10° NE
CZ-2C R/B 2.6 18:11:23 10° NNE 18:16:50 88° ESE 18:22:07 10° SSW
SL-08 RB Rocket 3.6 18:12:32 10° SSE 18:17:03 82° ENE 18:21:39 10° N
Cosmos 1689 Rocket 3.6 18:15:06 10° N 18:17:49 37° WNW 18:20:31 10° SW
Hubble Space Telescope 2.9 18:15:59 10° SSW 18:18:09 14° S 18:19:36 12° SSE
Cosmos 1378 3.2 18:17:00 10° N 18:20:39 50° E 18:22:45 22° SSE
NOSS 3-2 (A) 3.2 18:15:49 10° SSW 18:21:16 70° ESE 18:27:28 10° NE
HJ-1C 4.3 18:18:33 10° S 18:21:47 50° W 18:25:00 10° NNW
CREW DRAGON DEMO-1 DEB 4.1 18:20:01 10° W 18:22:37 34° NNW 18:23:59 21° NNE
COSMOS 2428 2.8 18:17:38 10° SSW 18:23:18 79° WNW 18:29:02 10° NNE
Cosmos 1733 Rocket 3.6 18:20:05 10° SSE 18:23:59 34° E 18:27:55 10° NNE
FALCON 9 DEB 4.0 18:22:47 10° NW 18:25:39 29° NNE 18:25:51 29° NE
SL-8 Rocket 4.4 18:25:45 10° SSW 18:31:56 67° W 18:38:07 10° N
CENTAUR R/B 2.4 18:27:23 10° SSW 18:32:52 56° ESE 18:39:24 10° NE
NOSS 0 Rocket 3.8 18:28:33 10° SSW 18:34:37 66° ESE 18:40:43 10° NNE
USA 307 4.3 18:31:33 10° NNW 18:35:04 24° NNE 18:35:52 23° NE
USA 306 4.2 18:32:47 10° NNW 18:36:23 25° NNE 18:37:06 24° NE
Meteor 2-20 4.4 18:30:27 10° N 18:36:30 59° E 18:41:59 13° SSE
Cosmos 1743 2.7 18:34:49 10° S 18:38:36 55° E 18:42:26 10° NNE
Cosmos 1898 Rocket 4.4 18:34:35 10° N 18:39:08 29° ENE 18:39:11 29° ENE
Cosmos 1066 Rocket 4.2 18:33:25 10° N 18:39:14 86° E 18:45:06 10° S
CSL-04 Rocket 4.3 18:37:38 10° S 18:43:04 57° W 18:48:29 10° NNW
USA 308 4.2 18:42:19 10° NNW 18:45:58 27° NNE 18:46:15 27° NNE
GRACE-FO 1 4.5 18:46:49 32° S 18:48:22 86° W 18:52:03 10° N
Meteor 1-23 Rocket 4.1 18:43:59 10° N 18:49:38 82° E 18:54:15 16° SSE
BREEZE-M DEB (TANK) 3.8 18:47:50 10° W 18:50:06 38° NNW 18:50:06 38° NNW
H-2A R/B 4.4 18:46:05 10° SSW 18:50:32 26° W 18:55:00 10° NW
SJ-6B 2.7 18:52:44 65° SSE 18:53:19 82° ENE 18:57:21 10° N
ASTEX 1 3.3 18:48:26 10° N 18:53:20 89° WNW 18:58:14 10° S
Ariane Rocket 2.9 18:55:34 49° SE 18:56:46 67° ENE 19:01:50 10° N
USA 186 4.1 18:59:37 15° NNW 18:59:37 15° NNW 19:00:15 10° NNW
Cosmos 990 Rocket 4.1 18:54:42 10° N 18:59:41 51° ENE 18:59:41 51° ENE
OBJECT-B 2.7 19:02:09 24° NNW 19:02:09 24° NNW 19:03:34 10° NNW
Cosmos 1763 Rocket 3.4 18:55:18 10° S 19:00:31 63° ESE 19:05:47 10° NNE
Cosmos 2221 Rocket 3.6 18:56:28 10° N 19:00:55 82° W 19:02:11 47° S
NOSS 3-2 (C) 3.1 18:57:30 10° SSW 19:02:59 82° ESE 19:08:11 15° NE
Cosmos 468 Rocket 3.9 19:06:54 10° SSW 19:12:13 85° ESE 19:17:32 10° NNE
Cosmos 1821 Rocket 3.9 19:08:08 10° S 19:14:21 89° W 19:20:33 10° N
Cosmos 2237 Rocket 2.2 19:10:01 10° SSW 19:15:42 79° WNW 19:21:26 10° NNE
Cosmos 1544 4.4 19:13:05 10° SSW 19:16:30 39° WNW 19:19:58 10° N
Cosmos 1943 Rocket 4.0 19:12:57 10° N 19:15:25 18° NNE 19:15:25 18° NNE
MOS 1 4.3 19:15:42 44° S 19:17:36 82° WSW 19:23:18 10° NNW
SJ 16-02 2.1 19:14:26 10° NNW 19:18:41 49° WSW 19:19:19 46° SW
Cosmos 1727 Rocket 4.5 19:12:53 10° NNW 19:18:56 58° W 19:25:00 10° S
USA 81 4.1 19:14:55 10° S 19:20:10 75° W 19:25:27 10° N
Cosmos 2278 Rocket 2.2 19:15:31 10° NNW 19:21:11 75° WSW 19:22:11 59° S
SPOT 3 Rocket 4.3 19:24:24 41° NNE 19:24:24 41° NNE 19:28:01 10° N
Cosmos 1000 Rocket 4.4 19:17:23 10° N 19:23:44 89° E 19:25:17 55° S
SL-4 R/B 4.0 19:21:09 10° WNW 19:22:57 20° WSW 19:22:57 20° WSW
Cosmos 2239 Rocket 4.4 19:17:44 10° S 19:24:03 90° WSW 19:30:21 10° N
SeaSat 1 4.1 19:20:49 10° N 19:25:12 33° NW 19:29:34 10° WSW
Cosmos 1934 Rocket 4.5 19:30:07 44° NNE 19:30:07 44° NNE 19:34:17 10° NNE
Resurs 01 Rocket 3.5 19:31:41 22° N 19:31:41 22° N 19:33:20 10° N
USA 234 3.2 19:33:09 42° NE 19:35:37 79° NW 19:42:09 10° SW
Gbstr 26 Del rocket 4.1 19:34:18 10° NW 19:38:19 54° NNW 19:38:19 54° NNW
Cosmos 2123 Rocket 4.2 19:36:01 10° N 19:41:02 58° NNE 19:41:02 58° NNE
DELTA 2 R/B (1) 4.3 19:42:33 10° W 19:46:36 49° WSW 19:46:36 49° WSW
Cosmos 2369 Rocket 4.4 20:16:43 10° N 20:18:00 16° N 20:18:00 16° N
CENTAUR R/B 4.1 20:18:36 10° W 20:23:57 32° NW 20:30:11 10° NNE
